Date String (YYYY-MM-DD hh:mm:ss) UTC,Instrument flags,absolute air pressure of the measurement (hPa),sample flow rate (lpm),inlet stack bypass flow (lpm),air temperature of the measurement (°C),ambient temperature measured by the external sensor (°C),aerosol sample conditioner tube jacket temperature (°C),OPC LED temperature (°C),internal box temperature (°C),relative humidity of the measurement (%),span deviation,mass concentration of particles derived from Lorenz-Mie calculation of OPC scattering (μg/m³),mass concentration of particles derived from Lorenz-Mie calculation of OPC scattering (μg/m³),mass concentration of particles derived from Lorenz-Mie calculation of OPC scattering (μg/m³)
DateTimeUTC,F1_M11,P_M11,Q1_M11,Q2_M11,T1_M11,T2_M11,T3_M11,T4_M11,T5_M11,U1_M11,ZSPAN_M11,X0_M11,X2_M11,X1_M11
2024-03-24 03:00:00,SystemResetWarning,0815.1,4.99,000.00,025.3,024.4,000.0,033.9,027.2,15.4,0000.0,0017.26,0006.09,0004.80
2024-03-24 03:01:00,SystemResetWarning,0815.1,5.00,000.00,025.3,024.4,000.0,033.9,027.2,15.4,0000.0,0017.63,0006.17,0004.86
2024-03-24 03:02:00,SystemResetWarning,0815.0,5.00,000.00,025.3,024.4,000.0,033.9,027.2,15.4,0000.0,0018.13,0006.26,0004.88
2024-03-24 03:03:00,SystemResetWarning,0815.0,5.00,000.00,025.3,024.4,000.0,033.9,027.2,15.5,0000.0,0017.87,0006.25,0004.88
2024-03-24 03:04:00,SystemResetWarning,0815.0,5.01,000.00,025.3,024.4,000.0,033.9,027.2,15.6,0000.0,0018.68,0006.28,0004.91
2024-03-24 03:05:00,SystemResetWarning,0815.0,5.00,000.00,025.3,024.4,000.0,033.9,027.2,15.6,0000.0,0018.60,0006.29,0004.93
2024-03-24 03:06:00,SystemResetWarning,0815.0,5.00,000.00,025.3,024.4,000.0,033.9,027.2,15.8,0000.0,0018.75,0006.25,0004.95
2024-03-24 03:07:00,SystemResetWarning,0815.0,5.00,000.00,025.3,024.4,000.0,033.9,027.2,15.9,0000.0,0018.55,0006.21,0004.96
2024-03-24 03:08:00,SystemResetWarning,0815.0,5.00,000.00,025.3,024.4,000.0,033.9,027.2,16.3,0000.4,0017.89,0006.24,0004.99
2024-03-24 03:09:00,SystemResetWarning,0815.0,5.00,000.00,025.3,024.4,000.0,033.9,027.2,16.6,0004.4,0018.23,0006.32,0005.04
2024-03-24 03:10:00,SystemResetWarning,0815.0,5.00,000.00,025.3,024.3,000.0,033.9,027.2,16.6,0004.1,0018.25,0006.31,0005.09
2024-03-24 03:11:00,SystemResetWarning,0815.0,5.00,000.00,025.3,024.3,000.0,033.9,027.2,16.6,0003.9,0018.47,0006.37,0005.15
2024-03-24 03:12:00,SystemResetWarning,0815.1,5.00,000.00,025.3,024.3,000.0,033.9,027.2,16.6,0003.3,0017.78,0006.40,0005.22
2024-03-24 03:13:00,SystemResetWarning,0815.0,5.00,000.00,025.3,024.3,000.0,033.9,027.1,16.6,0003.0,0017.75,0006.44,0005.29
2024-03-24 03:14:00,SystemResetWarning,0815.0,5.00,000.00,025.3,024.3,000.0,033.9,027.1,16.7,0003.2,0018.83,0006.49,0005.35
2024-03-24 03:15:00,SystemResetWarning,0815.0,5.00,000.00,025.3,024.3,000.0,033.9,027.1,16.8,0003.9,0018.17,0006.57,0005.42
2024-03-24 03:16:00,SystemResetWarning,0815.0,5.00,000.00,025.3,024.3,000.0,033.9,027.1,16.9,0004.1,0017.84,0006.58,0005.43
2024-03-24 03:17:00,SystemResetWarning,0815.0,5.00,000.00,025.3,024.3,000.0,033.9,027.1,17.0,0004.9,0017.10,0006.61,0005.44
2024-03-24 03:18:00,SystemResetWarning,0815.0,5.00,000.00,025.2,024.2,000.0,033.9,027.1,16.9,0004.8,0017.19,0006.64,0005.45
2024-03-24 03:19:00,SystemResetWarning,0815.0,5.00,000.00,025.2,024.2,000.0,033.9,027.1,17.1,0004.7,0016.81,0006.62,0005.44
2024-03-24 03:20:00,SystemResetWarning,0814.9,5.00,000.00,025.2,024.2,000.0,033.9,027.1,17.0,0004.0,0017.46,0006.55,0005.38
2024-03-24 03:21:00,SystemResetWarning,0814.9,5.00,000.00,025.2,024.2,000.0,033.9,027.1,17.0,0001.0,0018.12,0006.56,0005.33
2024-03-24 03:22:00,SystemResetWarning,0814.9,4.99,000.00,025.2,024.2,000.0,033.9,027.1,17.1,0000.0,0018.08,0006.50,0005.28
2024-03-24 03:23:00,SystemResetWarning,0814.9,5.00,000.00,025.2,024.2,000.0,033.9,027.1,17.2,0000.0,0018.02,0006.43,0005.23
2024-03-24 03:24:00,SystemResetWarning,0814.9,5.00,000.00,025.2,024.2,000.0,033.9,027.1,17.2,0000.0,0017.42,0006.38,0005.18
2024-03-24 03:25:00,SystemResetWarning,0814.9,5.00,000.00,025.2,024.2,000.0,033.9,027.1,17.2,0000.0,0016.27,0006.36,0005.15
2024-03-24 03:26:00,SystemResetWarning,0814.9,5.00,000.00,025.2,024.2,000.0,033.8,027.1,17.2,0000.0,0016.54,0006.27,0005.10
2024-03-24 03:27:00,SystemResetWarning,0814.9,5.00,000.00,025.2,024.2,000.0,033.8,027.1,17.2,0000.0,0017.50,0006.31,0005.10
2024-03-24 03:28:00,SystemResetWarning,0814.9,5.00,000.00,025.2,024.2,000.0,033.8,027.1,17.2,0000.0,0018.94,0006.33,0005.10
2024-03-24 03:29:00,SystemResetWarning,0814.9,5.01,000.00,025.2,024.2,000.0,033.8,027.1,17.4,0000.0,0019.44,0006.36,0005.08
2024-03-24 03:30:00,SystemResetWarning,0814.9,5.00,000.00,025.2,024.3,000.0,033.8,027.1,17.4,0000.0,0019.61,0006.36,0005.06
2024-03-24 03:31:00,SystemResetWarning,0815.0,5.00,000.00,025.2,024.2,000.0,033.8,027.1,17.4,0000.0,0019.36,0006.41,0005.07
2024-03-24 03:32:00,SystemResetWarning,0814.9,5.00,000.00,025.2,024.2,000.0,033.8,027.1,17.4,0000.0,0018.96,0006.39,0005.06
2024-03-24 03:33:00,SystemResetWarning,0815.0,5.00,000.00,025.2,024.2,000.0,033.8,027.1,17.4,0000.0,0018.68,0006.38,0005.06
2024-03-24 03:34:00,SystemResetWarning,0815.0,5.00,000.00,025.2,024.2,000.0,033.8,027.1,17.4,0000.0,0019.11,0006.42,0005.06
2024-03-24 03:35:00,SystemResetWarning,0815.0,5.00,000.00,025.2,024.2,000.0,033.8,027.0,17.5,0000.0,0019.75,0006.41,0005.05
2024-03-24 03:36:00,SystemResetWarning,0815.0,5.00,000.00,025.2,024.2,000.0,033.8,027.0,17.7,0000.0,0020.43,0006.37,0005.01
2024-03-24 03:37:00,SystemResetWarning,0815.0,5.00,000.00,025.2,024.2,000.0,033.8,027.0,17.7,0000.0,0019.58,0006.30,0004.95
2024-03-24 03:38:00,SystemResetWarning,0814.9,5.00,000.00,025.2,024.2,000.0,033.8,027.0,17.8,0000.0,0017.96,0006.20,0004.89
2024-03-24 03:39:00,SystemResetWarning,0814.9,5.00,000.00,025.1,024.2,000.0,033.8,027.0,17.8,0000.0,0017.21,0006.17,0004.85
2024-03-24 03:40:00,SystemResetWarning,0814.9,5.00,000.00,025.1,024.2,000.0,033.8,027.0,17.8,0000.0,0017.64,0006.09,0004.82
2024-03-24 03:41:00,SystemResetWarning,0814.9,5.00,000.00,025.1,024.2,000.0,033.8,027.0,17.8,0000.0,0017.91,0006.03,0004.80
2024-03-24 03:42:00,SystemResetWarning,0815.0,4.99,000.00,025.1,024.2,000.0,033.8,027.0,17.8,0000.0,0018.07,0006.01,0004.78
2024-03-24 03:43:00,SystemResetWarning,0814.9,5.01,000.00,025.1,024.2,000.0,033.8,027.0,17.8,0000.0,0017.41,0005.97,0004.76
2024-03-24 03:44:00,SystemResetWarning,0814.9,5.02,000.00,025.1,024.2,000.0,033.8,027.0,17.9,0000.0,0017.80,0005.97,0004.74
2024-03-24 03:45:00,SystemResetWarning,0814.9,4.99,000.00,025.1,024.2,000.0,033.8,027.0,18.0,0000.0,0017.72,0005.96,0004.71
2024-03-24 03:46:00,SystemResetWarning,0814.9,5.00,000.00,025.1,024.2,000.0,033.8,027.0,18.0,0000.0,0017.36,0005.86,0004.65
2024-03-24 03:47:00,SystemResetWarning,0814.9,5.03,000.00,025.1,024.2,000.0,033.8,027.0,17.9,0000.0,0017.82,0005.87,0004.64
2024-03-24 03:48:00,SystemResetWarning,0814.9,4.99,000.00,025.1,024.2,000.0,033.8,027.0,17.9,0000.0,0017.67,0005.91,0004.64
2024-03-24 03:49:00,SystemResetWarning,0814.9,4.99,000.00,025.1,024.2,000.0,033.8,027.0,17.8,0000.0,0017.96,0005.92,0004.64
2024-03-24 03:50:00,SystemResetWarning,0814.9,5.01,000.00,025.1,024.2,000.0,033.8,027.0,17.8,0000.0,0018.00,0005.89,0004.64
2024-03-24 03:51:00,SystemResetWarning,0814.9,5.02,000.00,025.1,024.2,000.0,033.7,027.0,17.7,0000.0,0016.82,0005.88,0004.65
2024-03-24 03:52:00,SystemResetWarning,0814.9,4.98,000.00,025.1,024.3,000.0,033.7,027.0,17.7,0000.0,0016.33,0005.87,0004.65
2024-03-24 03:53:00,SystemResetWarning,0814.9,4.99,000.00,025.1,024.3,000.0,033.7,027.0,17.8,0000.0,0015.78,0005.85,0004.64
2024-03-24 03:54:00,SystemResetWarning,0814.9,5.01,000.00,025.1,024.2,000.0,033.7,027.0,17.9,0000.0,0015.86,0005.83,0004.63
2024-03-24 03:55:00,SystemResetWarning,0814.9,5.00,000.00,025.1,024.2,000.0,033.7,027.0,17.9,0000.0,0016.95,0005.84,0004.62
2024-03-24 03:56:00,SystemResetWarning,0814.9,5.00,000.00,025.1,024.2,000.0,033.7,027.0,17.9,0000.0,0017.50,0005.84,0004.62
2024-03-24 03:57:00,SystemResetWarning,0814.9,5.00,000.00,025.1,024.2,000.0,033.7,027.0,17.8,0000.0,0017.99,0005.89,0004.63
2024-03-24 03:58:00,SystemResetWarning,0814.9,5.00,000.00,025.1,024.2,000.0,033.7,027.0,17.8,0002.9,0016.67,0005.91,0004.63
2024-03-24 03:59:00,SystemResetWarning,0814.9,5.00,000.00,025.1,024.2,000.0,033.7,027.0,17.9,0002.8,0016.68,0005.87,0004.62
